• Join FlightAware (Why Join?)
  • Login
  • US Flag 
03:20PM EST


 

Airport Tracker/Info


-or-


 

Live Flight TrackerFlight Track Log ✈ N931FR ✈ 30-Apr-2013 ✈ KMSP - KDEN

Flight Track Log - Related Links

Times and Time Zones

All times are in EDT time to prevent confusion due to time zone crossing. See the N931FR flight status page for this flight to view local times or setup timezone preferences in your user account.

Time Position Orientation Groundspeed Altitude Reporting Facility
EDT Latitude Longitude Course Direction KTS MPH feet Rate Location/Type
07:33PM 44.8833 -93.3167 230° Southwest 193 222 3,500  Level Minneapolis TRACON
07:33PM 44.8478 -93.3772 230° Southwest 245 282 5,800 3,180 Climbing Minneapolis Center
07:34PM 44.8036 -93.4567 232° Southwest 261 300 9,700 3,360 Climbing Minneapolis Center
07:35PM 44.7561 -93.5403 231° Southwest 276 318 12,700 3,240 Climbing Minneapolis Center
07:36PM 44.7061 -93.6289 232° Southwest 289 333 16,400 3,000 Climbing Minneapolis Center
07:38PM 44.6581 -93.7133 231° Southwest 278 320 19,000 2,280 Climbing Minneapolis Center
07:39PM 44.6056 -93.8067 232° Southwest 296 341 21,100 2,340 Climbing Minneapolis Center
07:40PM 44.5394 -93.9286 233° Southwest 323 372 23,800 2,220 Climbing Minneapolis Center
07:41PM 44.4844 -94.0342 234° Southwest 332 382 25,800 1,860 Climbing Minneapolis Center
07:42PM 44.4269 -94.1433 234° Southwest 344 396 27,700 1,740 Climbing Minneapolis Center
07:43PM 44.3683 -94.2542 234° Southwest 352 405 29,400 1,500 Climbing Minneapolis Center
07:44PM 44.3089 -94.3675 234° Southwest 360 414 30,900 1,380 Climbing Minneapolis Center
07:45PM 44.2464 -94.4828 233° Southwest 371 427 32,300 1,500 Climbing Minneapolis Center
07:46PM 44.1719 -94.6219 233° Southwest 375 432 34,000 780 Climbing Minneapolis Center
07:47PM 44.1197 -94.7186 233° Southwest 371 427 34,100  Climbing Minneapolis Center
07:48PM 44.0333 -94.8800 233° Southwest 372 428 34,100  Level Minneapolis Center
07:49PM 43.9711 -94.9944 233° Southwest 371 427 34,100  Level Minneapolis Center
07:50PM 43.9081 -95.1103 233° Southwest 375 432 34,100  Level Minneapolis Center
07:51PM 43.8450 -95.2244 233° Southwest 373 429 34,100  Level Minneapolis Center
07:52PM 43.7814 -95.3394 233° Southwest 375 432 34,100 60 Level Minneapolis Center
07:53PM 43.7303 -95.4311 232° Southwest 376 433 34,300 840 Climbing Minneapolis Center
07:54PM 43.6556 -95.5667 233° Southwest 369 425 35,900 1,380 Climbing Minneapolis Center
07:55PM 43.6069 -95.6933 242° Southwest 370 426 37,200 960 Climbing Minneapolis Center
07:56PM 43.5517 -95.8450 243° Southwest 368 423 38,000 360 Climbing Minneapolis Center
07:57PM 43.5061 -95.9725 244° Southwest 370 426 38,000  Level Minneapolis Center
07:58PM 43.4694 -96.0722 243° Southwest 367 422 38,000  Level Minneapolis Center
07:59PM 43.4147 -96.2233 244° Southwest 367 422 38,000  Level Minneapolis Center
08:00PM 43.3686 -96.3503 243° Southwest 370 426 38,000  Level Minneapolis Center
08:01PM 43.3306 -96.4497 242° Southwest 369 425 38,000  Level Minneapolis Center
08:02PM 43.2753 -96.6008 243° Southwest 369 425 38,000  Level Minneapolis Center
08:03PM 43.2278 -96.7247 242° Southwest 369 425 38,000  Level Minneapolis Center
08:04PM 43.1814 -96.8531 244° Southwest 372 428 38,000  Level Minneapolis Center
08:05PM 43.1247 -97.0019 242° Southwest 367 422 38,000  Level Minneapolis Center
08:06PM 43.0781 -97.1256 243° Southwest 367 422 38,000  Level Minneapolis Center
08:07PM 43.0317 -97.2475 243° Southwest 363 418 38,000  Level Minneapolis Center
08:09PM 42.9858 -97.3694 243° Southwest 362 417 38,000  Level Minneapolis Center
08:10PM 42.9397 -97.4875 242° Southwest 357 411 38,000  Level Minneapolis Center
08:11PM 42.8947 -97.6078 243° Southwest 356 410 38,000  Level Minneapolis Center
08:12PM 42.8475 -97.7272 242° Southwest 357 411 38,000  Level Minneapolis Center
08:13PM 42.8019 -97.8461 242° Southwest 357 411 38,000  Level Minneapolis Center
08:14PM 42.7456 -97.9878 242° Southwest 356 410 38,000  Level Minneapolis Center
08:15PM 42.6894 -98.1294 242° Southwest 355 409 38,000  Level Minneapolis Center
08:16PM 42.6439 -98.2478 242° Southwest 359 413 38,000  Level Minneapolis Center
08:17PM 42.5986 -98.3664 243° Southwest 356 410 38,000  Level Minneapolis Center
08:18PM 42.5514 -98.4836 241° Southwest 355 409 38,000  Level Minneapolis Center
08:19PM 42.5050 -98.6003 242° Southwest 353 406 38,000  Level Minneapolis Center
08:20PM 42.4572 -98.7158 241° Southwest 351 404 38,000  Level Minneapolis Center
08:21PM 42.3964 -98.8528 239° Southwest 353 406 38,000  Level Minneapolis Center
08:22PM 42.3453 -98.9678 239° Southwest 356 410 38,000  Level Minneapolis Center
08:23PM 42.2994 -99.0844 242° Southwest 354 407 38,000  Level Minneapolis Center
08:24PM 42.2556 -99.2039 244° Southwest 357 411 38,000  Level Minneapolis Center
08:25PM 42.2136 -99.3239 245° Southwest 355 409 38,000  Level Minneapolis Center
08:26PM 42.1694 -99.4431 243° Southwest 355 409 38,000  Level Denver Center
08:27PM 42.1258 -99.5614 244° Southwest 354 407 38,000  Level Denver Center
08:28PM 42.0822 -99.6789 243° Southwest 352 405 38,000  Level Denver Center
08:29PM 42.0356 -99.8050 244° Southwest 351 404 38,000  Level Denver Center
08:31PM 41.9419 -100.0542 243° Southwest 353 406 38,000  Level Minneapolis Center
08:32PM 41.8989 -100.1703 244° Southwest 351 404 38,000  Level Minneapolis Center
08:33PM 41.8528 -100.2900 243° Southwest 351 404 38,000  Level Denver Center
08:34PM 41.8100 -100.4019 243° Southwest 353 406 38,000  Level Denver Center
08:35PM 41.7606 -100.5325 243° Southwest 353 406 38,000  Level Denver Center
08:36PM 41.7178 -100.6442 243° Southwest 352 405 38,000  Level Denver Center
08:37PM 41.6681 -100.7761 243° Southwest 355 409 38,000  Level Denver Center
08:38PM 41.6256 -100.8872 243° Southwest 354 407 38,000  Level Denver Center
08:39PM 41.5822 -100.9994 243° Southwest 355 409 38,000  Level Denver Center
08:40PM 41.5325 -101.1289 243° Southwest 354 407 38,000  Level Denver Center
08:42PM 41.4892 -101.2397 242° Southwest 353 406 38,000  Level Denver Center
08:43PM 41.4383 -101.3689 242° Southwest 354 407 38,000  Level Denver Center
08:44PM 41.3950 -101.4792 242° Southwest 353 406 38,000  Level Denver Center
08:45PM 41.3433 -101.6089 242° Southwest 354 407 38,000  Level Denver Center
08:46PM 41.3003 -101.7194 243° Southwest 354 407 38,000  Level Denver Center
08:47PM 41.2642 -101.8122 243° Southwest 354 407 38,000  Level Denver Center
08:48PM 41.2036 -101.9606 242° Southwest 358 412 38,000  Level Denver Center
08:49PM 41.1597 -102.0708 242° Southwest 356 410 38,000  Level Denver Center
08:50PM 41.1083 -102.2006 242° Southwest 357 411 38,000  Level Denver Center
08:51PM 41.0628 -102.3122 242° Southwest 359 413 38,000  Level Denver Center
08:52PM 41.0169 -102.4231 241° Southwest 359 413 38,000  Level Denver Center
08:53PM 40.9644 -102.5503 241° Southwest 354 407 38,000  Level Denver Center
08:54PM 40.9203 -102.6606 242° Southwest 354 407 38,000  Level Denver Center
08:55PM 40.8669 -102.7881 241° Southwest 355 409 38,000  Level Denver Center
08:56PM 40.8211 -102.8981 241° Southwest 357 411 38,000  Level Denver Center
08:57PM 40.7750 -103.0092 241° Southwest 357 411 38,000 -180 Level Denver Center
08:58PM 40.7111 -103.1639 241° Southwest 357 411 37,700 -1,080 Descending Denver Center
08:59PM 40.6633 -103.2800 242° Southwest 357 411 35,800 -2,640 Descending Denver Center
09:00PM 40.6147 -103.3978 241° Southwest 363 418 32,400 -3,360 Descending Denver Center
09:01PM 40.5631 -103.5183 241° Southwest 375 432 29,000 -2,940 Descending Denver Center
09:02PM 40.5133 -103.6369 241° Southwest 369 425 26,400 -2,460 Descending Denver Center
09:03PM 40.4656 -103.7500 241° Southwest 356 410 24,000 -2,520 Descending Denver Center
09:04PM 40.4147 -103.8719 241° Southwest 350 403 21,300 -1,920 Descending Denver Center
09:05PM 40.3700 -103.9742 240° Southwest 325 374 20,200 -1,080 Descending Denver Center
09:06PM 40.3086 -104.0578 226° Southwest 326 375 19,200 -1,140 Descending Denver Center
09:07PM 40.2392 -104.1308 219° Southwest 322 371 17,900 -2,040 Descending Denver Center
09:08PM 40.1681 -104.2106 221° Southwest 318 366 15,100 -1,860 Descending Denver Center
09:09PM 40.0983 -104.2853 219° Southwest 322 371 14,200 -600 Descending Denver Center
09:10PM 40.0306 -104.3586 220° Southwest 317 365 14,000 -180 Descending Denver Center
09:11PM 39.9833 -104.4000 214° Southwest 321 369 14,000  Level Denver TRACON
09:12PM 39.9333 -104.4667 226° Southwest 272 313 14,000 -540 Level Denver TRACON
09:13PM 39.8500 -104.5000 197° South 279 321 13,000 -1,140 Descending Denver TRACON
09:14PM 39.8061 -104.5011 181° South 268 308 12,000 -2,040 Descending Denver Center
09:15PM 39.7331 -104.5025 181° South 263 303 9,500 -1,860 Descending Denver Center
09:16PM 39.6931 -104.5572 226° Southwest 253 291 8,300 -1,020 Descending Denver Center
09:17PM 39.7222 -104.6397 295° West 226 260 7,500 -720 Descending Denver Center
09:18PM 39.7561 -104.6614 334° Northwest 187 215 6,900 -780 Descending Denver Center
09:19PM 39.8069 -104.6606 North 145 167 5,900 -780 Descending Denver Center
09:20PM 39.8447 -104.6611 359° North 130 150 5,400 -540 Descending Denver Center